User: anonymous   Login
Location: Star Hoppers Observatory
(42.7905°N, 83.6127°W)
Time: 19:15:42
(UTC-05:00)
Language:

NOSS 3-1 (A) - Orbit

View from above orbital plane
View from above orbital plane
View from above satellite
View from above satellite

Ground track
Ground track

The orbit data is extracted from the following two-line orbital elements,

1 26905U 01040A   17044.79899374 0.00000000  00000-0  00000-0 0    02
2 26905  63.4200 348.6714 0360000 357.8471   2.1529 13.40746721    00
Epoch (UTC): 13 February 2017 19:10:33
Eccentricity: 0.0360000
inclination: 63.4200°
perigee height: 837 km
apogee height: 1376 km
right ascension of ascending node: 348.6714°
argument of perigee: 357.8471°
revolutions per day: 13.40746721
mean anomaly at epoch: 2.1529°
orbit number at epoch: 0

The dashed part of the orbit path shows where the satellite is in the earth's shadow,  

DLR